Montana Department of Transportation

Main Content

Accidents and Incidents Report

Hourly Weather Roundup

ASUS45 KTFX 040219
RWRMT 
MONTANA HOURLY WEATHER ROUNDUP
NATIONAL WEATHER SERVICE GREAT FALLS MT
719 PM MST TUE MAR 3 2015

NOTE: "FAIR" INDICATES FEW OR NO CLOUDS BELOW 12000 FEET WITH NO
SIGNIFICANT WEATHER AND/OR OBSTRUCTIONS TO VISIBILITY.

* THESE STATIONS ARE NOT UNDER NWS QUALITY CONTROL. THEY DO NOT
   REPORT WEATHER SUCH AS PRECIPITATION OR FOG.

MTZ001.007-043-040300-
WEST OF THE DIVIDE
CITY           SKY/WX    TMP DP  RH WIND       PRES   REMARKS
KALISPELL      CLEAR     21  10  62 S6        30.08R WCI  13 
MISSOULA       CLOUDY    27   7  42 N8        30.08R WCI  19 
BUTTE          CLEAR     16   1  51 NW8       29.94R WCI   5 
MULLAN PASS    CLOUDY    12   7  80 NW7       29.94R WCI   1 
* ANACONDA     CLEAR     12   1  61 SW3        N/A   
* ESSEX        N/A       16   2  54 N/A        N/A   
* EUREKA APT   CLEAR     23   5  46 CALM      30.09R 
* HAMILTON APT PTCLDY    21  12  68 SE5       30.06R WCI  14 
* LIBBY APT    CLEAR     25  14  63 SE3       30.10R 
* LINCOLN      N/A       21  -1  38 SW3        N/A   
* LOOKOUT PASS N/A       19   9  65 SW2        N/A   
* POLSON       N/A       17   6  62 SE1        N/A   
* RONAN APT    CLEAR     23  10  57 N/A        N/A   
* SEELEY LAKE  N/A       20  -2  38 N7G15      N/A   WCI  11 
* THOMP F APT  CLEAR     20   1  43 W4G15      N/A   
* YAAK HILL    N/A       33   7  33 N/A        N/A   
--------------------------------

MTZ008-052.055-040300-
SOUTHWEST MONTANA
CITY           SKY/WX    TMP DP  RH WIND       PRES   REMARKS
BOZEMAN        PTCLDY    12  -2  53 CALM      30.02R 
DILLON         CLEAR     16   5  62 N5        29.92R WCI   8 
* W YELLOWSTON PTCLDY    13  -6  42 SW2G9      N/A   
* THREE FORKS  PTCLDY    16  -6  37 N/A        N/A   
* BOULDER HILL N/A        7  -5  57 SW1        N/A   
* MONIDA PASS  N/A       12   2  64 SW9        N/A   
* RAYNOLDS PAS N/A        7   6  96 N2         N/A   
* WHITEHALL    N/A       20   1  43 E5G11      N/A   WCI  13 
* WISE RIVER   N/A       20   0  41 SW11G19    N/A   WCI   8 
--------------------------------

MTZ009.010-012-014-046-048-049-054-040300-
EAST SLOPES AND CENTRAL MONTANA
CITY           SKY/WX    TMP DP  RH WIND       PRES   REMARKS
CUT BANK       CLEAR      9  -2  61 NW10      30.06R WCI  -5 
GREAT FALLS    CLEAR     12  -2  53 NW3       30.07R 
HELENA         PTCLDY    21   3  45 CALM      30.03R 
MALMSTROM AFB  CLEAR     16  -2  45 NW6       30.09R WCI   7 
* CONRAD       CLEAR     18  -6  34 NW13       N/A   WCI   5 
* DEARBORN     N/A       15   3  59 NW6        N/A   WCI   6 
* EAST GLACIER N/A        1  -4  79 N2         N/A   
* MONARCH      N/A        2 -14  46 W10        N/A   WCI -13 
* PENDROY      N/A        4  -5  66 NW9        N/A   WCI -10 
* ROGERS PASS  N/A        9   2  73 N/A        N/A   
* SWEET GRASS  N/A       10  -3  55 NW10       N/A   WCI  -4 
* WHITE SULPH  N/A       11  -8  42 NW4G15     N/A   
--------------------------------

MTZ011-013-016-021-035-040-045-047-050-051-040300-
NORTH CENTRAL MONTANA
CITY           SKY/WX    TMP DP  RH WIND       PRES   REMARKS
HAVRE          FAIR      12   0  58 NW9       30.11R 
LEWISTOWN      FAIR       3  -6  66 SW14      30.00R WCI -15 
* N BAR RANCH  CLEAR      5  -8  54 NW10      29.96R WCI -10 
* CHINOOK      CLEAR     14   1  56 W13       30.12R 
* FORT BENTON  CLEAR     16  -6  37 W6        30.14R WCI   7 
* CHESTER      N/A       12  -5  46 NW8G13     N/A   
* DENTON       N/A        9  -3  58 W8         N/A   WCI  -3 
* GEYSER       N/A        8  -3  60 W5         N/A   WCI  -1 
* JUDITH GAP   N/A        2  -8  62 NW6        N/A   WCI  -9 
* LOMA         N/A       17  -7  34 NW8G15     N/A   WCI   7 
--------------------------------

MTZ017.020-022.027-061-062-040300-
NORTHEAST MONTANA
CITY           SKY/WX    TMP DP  RH WIND       PRES   REMARKS
GLASGOW        MOCLDY    12  -2  53 NW23G36   30.04R WCI  -7 
JORDAN         CLEAR     14  -6  40 NW21G29   30.03R WCI  -4 
SIDNEY         MOCLDY    10  -4  53 CALM      30.04R 
WOLF POINT     PTCLDY    14   1  56 NW22      30.04R WCI  -4 
* BEAVER HILL  N/A        9  -5  52 W12        N/A   WCI  -6 
* CIRCLE       N/A       14  -2  49 W10G16     N/A   WCI   1 
* LINDSAY DVD  N/A       11  -6  46 W19G24     N/A   WCI  -7 
* NAVAJO       N/A        2  -7  65 N19G29     N/A   WCI -19 
* PLENTYWOOD A PTCLDY     1  -4  79 NW14      29.97R WCI -18 
* POPLAR APT   CLEAR     12   1  61 W21G30    30.03R WCI  -7 
* SACO         N/A       12  -1  56 NW17G24    N/A   WCI  -5 
* SCOBEY APT   CLEAR      3  -9  57 NW15G22    N/A   WCI -16 
--------------------------------

MTZ028.042-056.058-040300-
SOUTHCENTRAL AND SOUTHEAST MONTANA
CITY           SKY/WX    TMP DP  RH WIND       PRES   REMARKS
BAKER          CLEAR     10  -6  48 NW12      29.98R WCI  -5 
BILLINGS       CLOUDY    16   0  49 W10       30.03R WCI   4 
LIVINGSTON     PTCLDY     9  -2  61 SW7       29.99R WCI  -2 
MILES CITY     CLEAR     12  -2  53 W8        30.04R 
* BIG TIMBER A PTCLDY    16   0  49 SW13      30.01R WCI   2 
* FORSYTH APT  CLEAR     14   0  53 W7        30.06R WCI   4 
* LAUREL APT   PTCLDY    12  -2  53 N/A        N/A   
* ROUNDUP APT  PTCLDY    14  -9  35 NW14       N/A   WCI  -1 
* ALZADA       N/A        3  -5  69 W4         N/A   
* HYSHAM       N/A       13  -7  40 W11G17     N/A   
* REED POINT   N/A       15  -1  49 E6         N/A   WCI   6 
* ROSCOE HILL  N/A        6  -7  55 SW4        N/A   
--------------------------------

REGIONAL REPORTS...DAKOTAS
CITY           SKY/WX    TMP DP  RH WIND       PRES   REMARKS
WILLISTON      CLOUDY     5  -2  72 CALM      30.00F 
DICKINSON      CLEAR      5  -6  60 NW9       29.95R WCI  -9 
BEACH          CLOUDY     9  -4  55 W13       29.98R WCI  -7 
CROSBY         LGT SNOW   5   0  80 NW16G23   29.98R VSB 2 1/2 WCI -14 
TIOGA          LGT SNOW   0  -6  75 W8        29.97F WCI -14 
WATFORD CITY   LGT SNOW   5  -4  66 CALM      29.99S 
BISMARCK       PTCLDY     7  -4  60 NW12      30.05R WCI  -9 
GRAND FORKS    CLOUDY     3  -6  66 NW13      30.00R WCI -14 
FARGO          PTCLDY     5  -6  60 NW14      30.03R WCI -12 
BUFFALO SD     CLEAR      7  -6  55 NW12      29.91R WCI  -9 
RAPID CITY     PTCLDY    10   0  64 N17       30.00R WCI  -8 
--------------------------------

REGIONAL REPORTS...WYOMING/IDAHO/WASHINGTON
CITY           SKY/WX    TMP DP  RH WIND       PRES   REMARKS
GILLETTE       PTCLDY     0  -6  75 W7        29.96R WCI -13 
SHERIDAN       PTCLDY    -2  -9  72 SW7       30.00R WCI -15 
CODY           PTCLDY     7   0  73 CALM      29.95R 
YELLOWSTONE LA PTCLDY     7  -6  55 VRB5      29.81R WCI  -2 
SALMON         CLEAR     28   3  34 N9        29.97R WCI  19 
MULLAN PASS    CLOUDY    12   7  80 NW7       29.94S WCI   1 
SAND POINT     CLEAR     32  16  52 CALM      30.11R 
SPOKANE        FAIR      34   7  32 SW8       30.10S WCI  27 
--------------------------------

REGIONAL REPORTS...ALBERTA
CITY           SKY/WX    TMP DP  RH WIND       PRES   REMARKS
CALGARY        N/A       14  -8  36 W3        30.08R 
LETHBRIDGE     N/A       12  -8  40 N3        30.14R 
MEDICINE HAT   FAIR      10  -2  58 NW12      30.15R WCI  -5 
EDMONTON       FAIR       5  -8  54 N13       30.15R WCI -12 
WATERTON GATE  N/A       -4 -11  71 NE2        N/A   
CARDSTON       N/A        3  -4  72 SW8        N/A   WCI -10 
MILK RIVER     N/A        9  -2  61 N17        N/A   WCI  -9 
--------------------------------

REGIONAL REPORTS...SASKATCHEWAN
CITY           SKY/WX    TMP DP  RH WIND       PRES   REMARKS
SWIFT CURRENT  LGT SNOW  -2  -6  83 N14       30.03R WCI -21 
REGINA         SNOW      -4 -11  71 NW18      30.01R WCI -26 
VAL MARIE      N/A        7  -2  66 NW18G24    N/A   WCI -12 
ASSINIBOIA     N/A       -2  -9  72 NW21       N/A   WCI -25 
CORONACH       N/A        3  -4  72 NW23G30    N/A   WCI -19 

--------------------------------